• In Österreich
  • Länderverzeichnis
  • Für 7 Tage
  • Wassertemperatur
  • Satellitenkarten
  • Wetterkarte
  • News
  • Widgets
  • user-avatar
    Anmelden

    Stündliche Wetter Stepanakert

    Heute, 16 August, Donnerstag

    Zeit Temperatur Niederschläge Wind Luftdruck Luftfeuchtigkeit
    00:00 +19°C° 0 mm 2 m/S 694 mmHg 70%
    01:00 +20°C° 0 mm 1 m/S 694 mmHg 71%
    02:00 +20°C° 0 mm 1 m/S 694 mmHg 72%
    03:00 +18°C° 0 mm 2 m/S 694 mmHg 74%
    04:00 +20°C° 0 mm 1 m/S 694 mmHg 73%
    05:00 +20°C° 0 mm 1 m/S 694 mmHg 72%
    06:00 +20°C° 0 mm 1 m/S 694 mmHg 71%
    07:00 +21°C° 0 mm 2 m/S 694 mmHg 64%
    08:00 +24°C° 0 mm 2 m/S 694 mmHg 57%
    09:00 +26°C° 0 mm 2 m/S 695 mmHg 48%
    10:00 +28°C° 0 mm 3 m/S 694 mmHg 45%
    11:00 +29°C° 0 mm 3 m/S 694 mmHg 42%
    12:00 +30°C° 0 mm 3 m/S 694 mmHg 40%
    13:00 +30°C° 0 mm 3 m/S 694 mmHg 39%
    14:00 +31°C° 0 mm 3 m/S 693 mmHg 38%
    15:00 +30°C° 0 mm 3 m/S 693 mmHg 41%
    16:00 +30°C° 0 mm 3 m/S 693 mmHg 43%
    17:00 +29°C° 0 mm 3 m/S 693 mmHg 45%
    18:00 +28°C° 0 mm 3 m/S 693 mmHg 47%
    19:00 +27°C° 0 mm 2 m/S 693 mmHg 52%
    20:00 +25°C° 0 mm 2 m/S 693 mmHg 57%
    21:00 +23°C° 0 mm 1 m/S 693 mmHg 62%
    22:00 +23°C° 0 mm 1 m/S 693 mmHg 62%
    23:00 +23°C° 0 mm 1 m/S 692 mmHg 63%

    Morgen, 17 August, Freitag

    Zeit Temperatur Niederschläge Wind Luftdruck Luftfeuchtigkeit
    00:00 +22°C° 0 mm 1 m/S 692 mmHg 64%
    01:00 +22°C° 0 mm 1 m/S 692 mmHg 64%
    02:00 +22°C° 0 mm 1 m/S 692 mmHg 64%
    03:00 +21°C° 0 mm 1 m/S 692 mmHg 65%
    04:00 +22°C° 0 mm 1 m/S 692 mmHg 63%
    05:00 +22°C° 0 mm 1 m/S 692 mmHg 62%
    06:00 +22°C° 0 mm 1 m/S 692 mmHg 61%
    07:00 +24°C° 0 mm 1 m/S 692 mmHg 54%
    08:00 +26°C° 0 mm 2 m/S 692 mmHg 47%
    09:00 +28°C° 0 mm 2 m/S 692 mmHg 41%
    10:00 +30°C° 0 mm 2 m/S 692 mmHg 38%
    11:00 +31°C° 0 mm 3 m/S 692 mmHg 35%
    12:00 +33°C° 0 mm 3 m/S 691 mmHg 32%
    13:00 +34°C° 0 mm 3 m/S 691 mmHg 32%
    14:00 +34°C° 0 mm 3 m/S 691 mmHg 31%
    15:00 +34°C° 0 mm 3 m/S 690 mmHg 30%
    16:00 +34°C° 0 mm 3 m/S 690 mmHg 33%
    17:00 +33°C° 0 mm 3 m/S 690 mmHg 35%
    18:00 +31°C° 0 mm 3 m/S 690 mmHg 38%
    19:00 +29°C° 0 mm 2 m/S 690 mmHg 43%
    20:00 +27°C° 0 mm 2 m/S 690 mmHg 48%
    21:00 +25°C° 0 mm 2 m/S 690 mmHg 53%
    22:00 +25°C° 0 mm 2 m/S 690 mmHg 54%
    23:00 +24°C° 0 mm 2 m/S 689 mmHg 55%

    übermorgen, 18 August, Samstag

    Zeit Temperatur Niederschläge Wind Luftdruck Luftfeuchtigkeit
    00:00 +24°C° 0 mm 2 m/S 689 mmHg 56%
    01:00 +23°C° 0 mm 1 m/S 689 mmHg 57%
    02:00 +23°C° 0 mm 1 m/S 689 mmHg 58%
    03:00 +23°C° 0 mm 1 m/S 689 mmHg 59%
    04:00 +23°C° 0 mm 1 m/S 689 mmHg 59%
    05:00 +23°C° 0 mm 1 m/S 689 mmHg 58%
    06:00 +23°C° 0 mm 1 m/S 689 mmHg 58%
    07:00 +25°C° 0 mm 2 m/S 689 mmHg 51%
    08:00 +27°C° 0 mm 2 m/S 690 mmHg 44%
    09:00 +29°C° 0 mm 2 m/S 690 mmHg 38%
    10:00 +30°C° 0 mm 3 m/S 690 mmHg 35%
    11:00 +31°C° 0 mm 3 m/S 689 mmHg 33%
    12:00 +34°C° 0 mm 4 m/S 689 mmHg 31%
    13:00 +34°C° 0 mm 4 m/S 689 mmHg 31%
    14:00 +34°C° 0 mm 4 m/S 688 mmHg 30%
    15:00 +34°C° 0 mm 4 m/S 688 mmHg 30%
    16:00 +33°C° 0 mm 4 m/S 688 mmHg 33%
    17:00 +32°C° 0 mm 4 m/S 688 mmHg 36%
    18:00 +30°C° 0 mm 4 m/S 688 mmHg 39%
    19:00 +28°C° 0 mm 3 m/S 688 mmHg 44%
    20:00 +27°C° 0 mm 3 m/S 688 mmHg 49%
    21:00 +25°C° 0 mm 2 m/S 689 mmHg 54%
    22:00 +24°C° 0 mm 2 m/S 689 mmHg 55%
    23:00 +24°C° 0 mm 2 m/S 689 mmHg 56%

    19 August, Sonntag

    Zeit Temperatur Niederschläge Wind Luftdruck Luftfeuchtigkeit
    00:00 +24°C° 0 mm 2 m/S 689 mmHg 57%
    01:00 +23°C° 0 mm 2 m/S 689 mmHg 57%
    02:00 +23°C° 0 mm 2 m/S 689 mmHg 56%
    03:00 +23°C° 0 mm 2 m/S 689 mmHg 56%
    04:00 +23°C° 0 mm 2 m/S 689 mmHg 55%
    05:00 +23°C° 0 mm 2 m/S 689 mmHg 53%
    06:00 +23°C° 0 mm 2 m/S 689 mmHg 52%
    07:00 +25°C° 0 mm 2 m/S 690 mmHg 47%
    08:00 +27°C° 0 mm 3 m/S 690 mmHg 41%
    09:00 +29°C° 0 mm 3 m/S 690 mmHg 36%
    10:00 +30°C° 0 mm 4 m/S 690 mmHg 34%
    11:00 +32°C° 0 mm 5 m/S 690 mmHg 31%
    12:00 +33°C° 0 mm 5 m/S 690 mmHg 29%
    13:00 +33°C° 0 mm 6 m/S 690 mmHg 29%
    14:00 +33°C° 0 mm 6 m/S 690 mmHg 29%
    15:00 +33°C° 0 mm 6 m/S 689 mmHg 28%
    16:00 +32°C° 0 mm 6 m/S 689 mmHg 31%
    17:00 +29°C° 0 mm 6 m/S 689 mmHg 34%
    18:00 +28°C° 0 mm 6 m/S 689 mmHg 37%
    19:00 +26°C° 0 mm 5 m/S 690 mmHg 43%
    20:00 +23°C° 0 mm 4 m/S 690 mmHg 48%
    21:00 +21°C° 0 mm 4 m/S 690 mmHg 54%
    22:00 +21°C° 0 mm 3 m/S 690 mmHg 57%
    23:00 +20°C° 0 mm 3 m/S 690 mmHg 59%

    20 August, Montag

    Zeit Temperatur Niederschläge Wind Luftdruck Luftfeuchtigkeit
    00:00 +20°C° 0 mm 3 m/S 691 mmHg 62%
    01:00 +19°C° 0 mm 2 m/S 691 mmHg 64%
    02:00 +19°C° 0 mm 2 m/S 691 mmHg 66%
    03:00 +18°C° 0 mm 2 m/S 691 mmHg 68%
    04:00 +18°C° 0 mm 2 m/S 691 mmHg 68%
    05:00 +18°C° 0 mm 2 m/S 691 mmHg 68%
    06:00 +18°C° 0 mm 2 m/S 692 mmHg 68%
    07:00 +20°C° 0 mm 3 m/S 692 mmHg 61%
    08:00 +22°C° 0 mm 3 m/S 692 mmHg 55%
    09:00 +25°C° 0 mm 4 m/S 693 mmHg 48%
    10:00 +26°C° 0 mm 4 m/S 693 mmHg 44%
    11:00 +27°C° 0 mm 4 m/S 693 mmHg 41%
    12:00 +28°C° 0 mm 5 m/S 693 mmHg 37%
    13:00 +28°C° 0 mm 5 m/S 692 mmHg 36%
    14:00 +29°C° 0 mm 5 m/S 692 mmHg 36%
    15:00 +29°C° 0 mm 5 m/S 692 mmHg 35%
    16:00 +28°C° 0 mm 4 m/S 692 mmHg 38%
    17:00 +27°C° 0 mm 4 m/S 692 mmHg 41%
    18:00 +26°C° 0 mm 4 m/S 692 mmHg 44%
    19:00 +24°C° 0 mm 3 m/S 692 mmHg 49%
    20:00 +21°C° 0 mm 3 m/S 692 mmHg 54%
    21:00 +20°C° 0 mm 2 m/S 693 mmHg 59%
    22:00 +19°C° 0 mm 2 m/S 693 mmHg 61%
    23:00 +19°C° 0 mm 2 m/S 693 mmHg 64%

    21 August, Dienstag

    Zeit Temperatur Niederschläge Wind Luftdruck Luftfeuchtigkeit
    00:00 +19°C° 0 mm 1 m/S 693 mmHg 66%
    01:00 +19°C° 0 mm 1 m/S 693 mmHg 67%
    02:00 +18°C° 0 mm 1 m/S 693 mmHg 68%
    03:00 +18°C° 0 mm 1 m/S 692 mmHg 68%
    04:00 +18°C° 0 mm 1 m/S 693 mmHg 66%
    05:00 +19°C° 0 mm 1 m/S 693 mmHg 64%
    06:00 +19°C° 0 mm 1 m/S 693 mmHg 62%
    07:00 +21°C° 0 mm 1 m/S 694 mmHg 53%
    08:00 +23°C° 0 mm 2 m/S 694 mmHg 45%
    09:00 +25°C° 0 mm 3 m/S 694 mmHg 37%
    10:00 +26°C° 0 mm 3 m/S 694 mmHg 34%
    11:00 +27°C° 0 mm 3 m/S 694 mmHg 32%
    12:00 +29°C° 0 mm 4 m/S 694 mmHg 29%
    13:00 +29°C° 0 mm 4 m/S 694 mmHg 29%
    14:00 +29°C° 0 mm 4 m/S 694 mmHg 28%
    15:00 +30°C° 0 mm 4 m/S 693 mmHg 28%
    16:00 +29°C° 0 mm 4 m/S 693 mmHg 30%
    17:00 +28°C° 0 mm 4 m/S 694 mmHg 32%
    18:00 +27°C° 0 mm 4 m/S 694 mmHg 35%
    19:00 +25°C° 0 mm 3 m/S 694 mmHg 39%
    20:00 +22°C° 0 mm 3 m/S 694 mmHg 43%
    21:00 +20°C° 0 mm 2 m/S 695 mmHg 48%
    22:00 +20°C° 0 mm 2 m/S 695 mmHg 49%
    23:00 +19°C° 0 mm 2 m/S 695 mmHg 50%
    Mehr zeigen